Location: Minneapolis
(45.0000°N, 93.0000°W)
Time: 20:42:14
(UTC-06:00)

OTV 5 (USA 277) - Visible Passes

Search period start: 13 December 2017 00:00
Search period end: 23 December 2017 00:00
Orbit: 404 x 417 km, 43.0° (Epoch: 07 September)

Date Brightness Start Highest point End Pass type
(mag) Time Alt. Az. Time Alt. Az. Time Alt. Az.
13 Dec ? 17:10:45 10° W 17:14:01 48° SSW 17:17:17 10° ESE visible
13 Dec ? 18:48:33 10° WSW 18:50:54 18° SSW 18:51:35 17° SSW visible
14 Dec ? 17:57:12 10° W 17:59:59 24° SSW 18:02:45 10° SSE visible
15 Dec ? 17:05:59 10° W 17:09:02 31° SSW 17:12:03 10° SE visible
16 Dec ? 17:53:16 10° WSW 17:54:48 13° SSW 17:56:21 10° S visible
